Showing default

IONOSFERA-M 02, 61736

Orbit data source: Space-Track

IONOSFERA-M 02, 61736 is a payload satellite owned by VNIIEM (CIS) in SSO that was launched on Mon, 04 Nov 2024 UTC via a SOYUZ-2-1B launch vehicle from the Vostochny Cosmodrome (VOSTO). Payload-class satellites include a variety of spacecraft equipped with specific instruments for various scientific and technological missions. These include communications satellites like Starlink; space stations such as the ISS; scientific satellites like the Hubble; Earth observation satellites from companies like Planet Labs, Umbra, and HawkEye 360; GPS; miniature CubeSats for education and research; and military/defense satellites.

Loading next visibility...
Identifier
61736, 2024-199B
Orbit
SSO
Country
Flag of CISCIS
Related business
Manufacturer
VNIIEM
Mission
Operational Civil Science
Bus & Motor
IONOSFERA-M, Unknown motor
Mass
430 kg wet, 430 kg dry
Launch date (UTC)
2024-11-04 (2 years ago)
Launch vehicle
SOYUZ-2-1B
Launch site
Vostochny Cosmodrome (VOSTO)
Object type
Payload
Rocket body
Debris
Shape & HBR
Box + 1 Ant, 5.0 m
Radar Cross Section
2.359 m², Large (>1 m²)

Expand to show TLE details & history
Last TLE update: 6 hours ago

TLE from 6 hours ago
0 IONOSFERA-M 02
1 61736U 24199B   26127.93131364  .00000051  00000-0  42570-4 0  9994
2 61736  98.7224   1.4290 0002010  82.8799 277.2607 14.22749710125106
Epoch: 2026-05-07T22:21Z
TLE epoch observation values (Epoch: 2026-05-07T22:21:05.498Z)
Latitude
-0.00007°
Longitude
160.38573°
Altitude
818.804 km
Speed
7.444 km/s
True Right ascension
00h 05m 42s
True Declination
0° 00' 00"
Sunlit
Object was in daylight at epoch
Visualization orbit readout
Latitude
Unknown
Longitude
Unknown
Altitude
Unknown
Speed
Unknown
Apparent Right ascension
Unknown
Apparent Declination
Unknown
Sunlit
N/A
Visualization observer readout
Local Sidereal Time
12:39:56
Azimuth
Unknown
Elevation
Unknown
Doppler factor
Unknown
Orbital elements
Apogee altitude
814.669 km
Perigee altitude
811.779 km
Semi-major axis
7,191.361 km
Eccentricity
0.0002
Inclination
98.7224°
RAAN
1.429°
Arg. of periapsis
82.8799°
True anomaly
277.23785°
Mean anomaly
277.2607°
Eccentric anomaly
277.24928°
Mean motion
3.55899 °/min
Orbital period
101.15 mins
BSTAR
0.00004257
Loading maneuver chart data...
Computing Atmospheric mass density...
Loading historical data...
Loading historical data...
Loading historical data...
Loading historical data...
Loading historical data...
Loading historical data...
Loading historical data...

Documentation

Showing up to 5 results
|